Home   Weather   Douala   Past weeks

Flag for Cameroon Past Weather in Douala, Cameroon — Yesterday and Last 2 Weeks

Now
81 °F

Passing clouds.


Feels Like: 86 °F
Forecast: 72 / 87 °F
Wind: 2 mph from Southwest

Location: Douala Obs.

Current Time: Jan 24, 2017 at 10:35:29 pm

Latest Report: Jan 24, 2017 at 10:00 pm


Visibility: N/A

Pressure: 29.89 "Hg

Humidity: 84%

Dew Point: 75 °F

Location of DoualaLocation

Past Weather in Douala — Graph

°F

Douala Temperature Yesterday

Maximum temperature yesterday: 84 °F (at 11:00 am)
Minimum temperature yesterday: 75 °F (at 8:00 pm)
Average temperature yesterday: 79 °F

High & Low Weather Summary for the Past Weeks

 TemperatureHumidityPressure
High93 °F (Jan 15, 2:00 pm)100% (Jan 10, 12:00 am)29.92 "Hg (Jan 10, 12:00 am)
Low75 °F (Jan 11, 5:00 am)56% (Jan 10, 1:00 pm)29.68 "Hg (Jan 10, 4:00 pm)
Average83 °F83%29.79 "Hg
* Reported Jan 9 9:00 pm — Jan 24 9:00 pm, Douala, Weather by CustomWeather, © 2017

Note: Actual official high and low records may vary slightly from our data, if they occured in-between our weather recording intervals... More about our weather records

Advertising

Douala Weather History for the Previous 24 Hours

Scroll right to see more
 ConditionsComfort  
Time TempWeatherWind HumidityBarometerVisibility
9:00 pm
Tue, Jan 24
81 °FPassing clouds.2 mph89%29.89 "HgN/A
8:00 pm82 °FPassing clouds.5 mph84%29.86 "HgN/A
7:00 pm82 °FPassing clouds.5 mph79%29.83 "HgN/A
6:00 pm84 °FPartly sunny.5 mph79%29.80 "HgN/A
5:00 pm86 °FPartly sunny.10 mph75%29.80 "HgN/A
4:00 pm86 °FPartly sunny.7 mph70%29.80 "HgN/A
3:00 pm90 °FPartly sunny.8 mph63%29.80 "HgN/A
2:00 pm88 °FPartly sunny.6 mph66%29.83 "HgN/A
1:00 pm86 °FPartly sunny.6 mph66%29.86 "HgN/A
12:00 pm86 °FPartly sunny.3 mph70%29.89 "HgN/A
11:00 am84 °FPartly sunny.6 mph74%29.92 "Hg5 mi
10:00 am81 °FPartly sunny.2 mph79%29.92 "Hg5 mi
9:00 am77 °FPartly sunny.1 mph83%29.92 "HgN/A
8:00 am75 °FPartly sunny.No wind94%29.89 "HgN/A
7:00 am75 °FPartly sunny.No wind94%29.86 "HgN/A
6:00 am75 °FPassing clouds.No wind89%29.86 "HgN/A
5:00 am75 °FPassing clouds.2 mph89%29.86 "HgN/A
4:00 am75 °FPassing clouds.1 mph89%29.86 "HgN/A
3:00 am75 °FPassing clouds.No wind89%29.83 "HgN/A
2:00 am75 °FPassing clouds.No wind94%29.86 "HgN/A
1:00 am75 °FPassing clouds.No wind94%29.89 "HgN/A
12:00 am75 °FPassing clouds.No wind94%29.89 "HgN/A
11:00 pm
Mon, Jan 23
75 °FPassing clouds.3 mph94%29.89 "Hg5 mi
10:00 pm75 °FPassing clouds.1 mph94%29.89 "Hg5 mi
Weather by CustomWeather, © 2017

See weather overviewHow to use our weather pages